This is the latest recevied weather packets stored in our database for station/object KN6ZYR. If no packets are shown the sender has not sent any weather packets the latest 10 day(s).
| Time | Temp. | Humidity | Pressure | Rain* | Wind** | Luminosity | Snow |
|---|---|---|---|---|---|---|---|
| 1777086446 | 16.67° C | 22% | 1012.8 hPa | 0 mm | - | 0 W/m² | - |
| 1777086143 | 17.22° C | 23% | 1012.6 hPa | 0 mm | - | 0 W/m² | - |
| 1777085838 | 17.22° C | 22% | 1012.6 hPa | 0 mm | - | 0 W/m² | - |
| 1777085535 | 17.22° C | 22% | 1012.6 hPa | 0 mm | - | 0 W/m² | - |
| 1777085231 | 17.22° C | 22% | 1012.5 hPa | 0 mm | - | 1 W/m² | - |
| 1777084927 | 17.78° C | 22% | 1012.3 hPa | 0 mm | - | 1 W/m² | - |
| 1777084623 | 17.78° C | 21% | 1012.3 hPa | 0 mm | - | 2 W/m² | - |
| 1777084318 | 17.78° C | 20% | 1012.1 hPa | 0 mm | - | 3 W/m² | - |
| 1777084012 | 18.33° C | 20% | 1012 hPa | 0 mm | - | 5 W/m² | - |
| 1777083711 | 18.33° C | 20% | 1012 hPa | 0 mm | - | 7 W/m² | - |
| 1777083407 | 18.89° C | 19% | 1012.1 hPa | 0 mm | - | 10 W/m² | - |
| 1777083104 | 18.89° C | 19% | 1012 hPa | 0 mm | - | 14 W/m² | - |
| 1777082803 | 19.44° C | 19% | 1011.7 hPa | 0 mm | - | 20 W/m² | - |
| 1777082499 | 20° C | 20% | 1012 hPa | 0 mm | - | 27 W/m² | - |
| 1777082194 | 20° C | 19% | 1011.7 hPa | 0 mm | - | 32 W/m² | - |
| 1777081889 | 20.56° C | 19% | 1011.7 hPa | 0 mm | - | 39 W/m² | - |
| 1777081585 | 20.56° C | 19% | 1012.1 hPa | 0 mm | - | 44 W/m² | - |
| 1777081282 | 20° C | 18% | 1011.7 hPa | 0 mm | - | 54 W/m² | - |
| 1777080981 | 20.56° C | 18% | 1012 hPa | 0 mm | - | 64 W/m² | - |
| 1777080681 | 20.56° C | 19% | 1011.7 hPa | 0 mm | - | 64 W/m² | - |
| 1777080377 | 20.56° C | 18% | 1011.7 hPa | 0 mm | - | 61 W/m² | - |
| 1777080071 | 20.56° C | 19% | 1011.8 hPa | 0 mm | - | 61 W/m² | - |
| 1777079770 | 20.56° C | 19% | 1011.7 hPa | 0 mm | - | 59 W/m² | - |
| 1777079466 | 20.56° C | 18% | 1011.7 hPa | 0 mm | - | 54 W/m² | - |
| 1777079162 | 20.56° C | 18% | 1011.7 hPa | 0 mm | - | 57 W/m² | - |
* Rain latest hour (hover to see other rain measurements)
** Current wind speed in m/s (hover to see current wind gust speed)